Year,Month,Day,Hour,Minute,Value (Times are PST for temperature in C)
2011,08,21,00,00,15.80
2011,08,21,00,01,15.80
2011,08,21,00,02,15.80
2011,08,21,00,03,15.80
2011,08,21,00,04,15.70
2011,08,21,00,05,15.70
2011,08,21,00,06,15.60
2011,08,21,00,07,15.60
2011,08,21,00,08,15.60
2011,08,21,00,09,15.60
2011,08,21,00,10,15.50
2011,08,21,00,11,15.50
2011,08,21,00,12,15.50
2011,08,21,00,13,15.50
2011,08,21,00,14,15.50
2011,08,21,00,15,15.50
2011,08,21,00,16,15.60
2011,08,21,00,17,15.60
2011,08,21,00,18,15.60
2011,08,21,00,19,15.60
2011,08,21,00,20,15.60
2011,08,21,00,21,15.60
2011,08,21,00,22,15.60
2011,08,21,00,23,15.60
2011,08,21,00,24,15.60
2011,08,21,00,25,15.60
2011,08,21,00,26,15.50
2011,08,21,00,27,15.50
2011,08,21,00,28,15.50
2011,08,21,00,29,15.40
2011,08,21,00,30,15.40
2011,08,21,00,31,15.40
2011,08,21,00,32,15.40
2011,08,21,00,33,15.30
2011,08,21,00,34,15.30
2011,08,21,00,35,15.30
2011,08,21,00,36,15.30
2011,08,21,00,37,15.30
2011,08,21,00,38,15.30
2011,08,21,00,39,15.30
2011,08,21,00,40,15.30
2011,08,21,00,41,15.30
2011,08,21,00,42,15.30
2011,08,21,00,43,15.30
2011,08,21,00,44,15.30
2011,08,21,00,45,15.30
2011,08,21,00,46,15.30
2011,08,21,00,47,15.30
2011,08,21,00,48,15.30
2011,08,21,00,49,15.30
2011,08,21,00,50,15.30
2011,08,21,00,51,15.20
2011,08,21,00,52,15.20
2011,08,21,00,53,15.20
2011,08,21,00,54,15.20
2011,08,21,00,55,15.20
2011,08,21,00,56,15.20
2011,08,21,00,57,15.20
2011,08,21,00,58,15.20
2011,08,21,00,59,15.20
2011,08,21,01,00,15.20
2011,08,21,01,01,15.20
2011,08,21,01,02,15.20
2011,08,21,01,03,15.10
2011,08,21,01,04,15.10
2011,08,21,01,05,15.10
2011,08,21,01,06,15.10
2011,08,21,01,07,15.10
2011,08,21,01,08,15.00
2011,08,21,01,09,15.00
2011,08,21,01,10,15.00
2011,08,21,01,11,15.00
2011,08,21,01,12,15.00
2011,08,21,01,13,15.00
2011,08,21,01,14,15.00
2011,08,21,01,15,14.90
2011,08,21,01,16,14.90
2011,08,21,01,17,14.90
2011,08,21,01,18,14.90
2011,08,21,01,19,14.90
2011,08,21,01,20,14.90
2011,08,21,01,21,14.90
2011,08,21,01,22,14.90
2011,08,21,01,23,14.80
2011,08,21,01,24,14.80
2011,08,21,01,25,14.80
2011,08,21,01,26,14.80
2011,08,21,01,27,14.80
2011,08,21,01,28,14.80
2011,08,21,01,29,14.80
2011,08,21,01,30,14.80
2011,08,21,01,31,14.80
2011,08,21,01,32,14.80
2011,08,21,01,33,14.80
2011,08,21,01,34,14.80
2011,08,21,01,35,14.80
2011,08,21,01,36,14.80
2011,08,21,01,37,14.80
2011,08,21,01,38,14.80
2011,08,21,01,39,14.80
2011,08,21,01,40,14.80
2011,08,21,01,41,14.80
2011,08,21,01,42,14.80
2011,08,21,01,43,14.80
2011,08,21,01,44,14.80
2011,08,21,01,45,14.80
2011,08,21,01,46,14.90
2011,08,21,01,47,14.90
2011,08,21,01,48,14.90
2011,08,21,01,49,14.90
2011,08,21,01,50,14.90
2011,08,21,01,51,14.90
2011,08,21,01,52,14.90
2011,08,21,01,53,14.90
2011,08,21,01,54,14.90
2011,08,21,01,55,14.90
2011,08,21,01,56,14.90
2011,08,21,01,57,14.90
2011,08,21,01,58,14.90
2011,08,21,01,59,14.90
2011,08,21,02,00,14.90
2011,08,21,02,01,14.90
2011,08,21,02,02,14.90
2011,08,21,02,03,14.90
2011,08,21,02,04,14.90
2011,08,21,02,05,14.90
2011,08,21,02,06,14.80
2011,08,21,02,07,14.80
2011,08,21,02,08,14.80
2011,08,21,02,09,14.80
2011,08,21,02,10,14.80
2011,08,21,02,11,14.80
2011,08,21,02,12,14.80
2011,08,21,02,13,14.80
2011,08,21,02,14,14.80
2011,08,21,02,15,14.80
2011,08,21,02,16,14.70
2011,08,21,02,17,14.70
2011,08,21,02,18,14.60
2011,08,21,02,19,14.50
2011,08,21,02,20,14.50
2011,08,21,02,21,14.40
2011,08,21,02,22,14.30
2011,08,21,02,23,14.30
2011,08,21,02,24,14.20
2011,08,21,02,25,14.20
2011,08,21,02,26,14.20
2011,08,21,02,27,14.20
2011,08,21,02,28,14.20
2011,08,21,02,29,14.20
2011,08,21,02,30,14.20
2011,08,21,02,31,14.20
2011,08,21,02,32,14.20
2011,08,21,02,33,14.20
2011,08,21,02,34,14.20
2011,08,21,02,35,14.20
2011,08,21,02,36,14.20
2011,08,21,02,37,14.20
2011,08,21,02,38,14.20
2011,08,21,02,39,14.20
2011,08,21,02,40,14.30
2011,08,21,02,41,14.30
2011,08,21,02,42,14.40
2011,08,21,02,43,14.40
2011,08,21,02,44,14.40
2011,08,21,02,45,14.40
2011,08,21,02,46,14.40
2011,08,21,02,47,14.40
2011,08,21,02,48,14.40
2011,08,21,02,49,14.40
2011,08,21,02,50,14.40
2011,08,21,02,51,14.40
2011,08,21,02,52,14.40
2011,08,21,02,53,14.40
2011,08,21,02,54,14.40
2011,08,21,02,55,14.30
2011,08,21,02,56,14.30
2011,08,21,02,57,14.30
2011,08,21,02,58,14.30
2011,08,21,02,59,14.20
2011,08,21,03,00,14.20
2011,08,21,03,01,14.20
2011,08,21,03,02,14.20
2011,08,21,03,03,14.20
2011,08,21,03,04,14.20
2011,08,21,03,05,14.20
2011,08,21,03,06,14.20
2011,08,21,03,07,14.20
2011,08,21,03,08,14.20
2011,08,21,03,09,14.20
2011,08,21,03,10,14.20
2011,08,21,03,11,14.20
2011,08,21,03,12,14.20
2011,08,21,03,13,14.20
2011,08,21,03,14,14.20
2011,08,21,03,15,14.20
2011,08,21,03,16,14.20
2011,08,21,03,17,14.20
2011,08,21,03,18,14.20
2011,08,21,03,19,14.20
2011,08,21,03,20,14.20
2011,08,21,03,21,14.20
2011,08,21,03,22,14.20
2011,08,21,03,23,14.20
2011,08,21,03,24,14.20
2011,08,21,03,25,14.20
2011,08,21,03,26,14.20
2011,08,21,03,27,14.20
2011,08,21,03,28,14.20
2011,08,21,03,29,14.10
2011,08,21,03,30,14.00
2011,08,21,03,31,14.00
2011,08,21,03,32,13.90
2011,08,21,03,33,13.90
2011,08,21,03,34,13.80
2011,08,21,03,35,13.80
2011,08,21,03,36,13.80
2011,08,21,03,37,13.70
2011,08,21,03,38,13.70
2011,08,21,03,39,13.70
2011,08,21,03,40,13.70
2011,08,21,03,41,13.70
2011,08,21,03,42,13.70
2011,08,21,03,43,13.70
2011,08,21,03,44,13.70
2011,08,21,03,45,13.70
2011,08,21,03,46,13.70
2011,08,21,03,47,13.70
2011,08,21,03,48,13.70
2011,08,21,03,49,13.60
2011,08,21,03,50,13.60
2011,08,21,03,51,13.50
2011,08,21,03,52,13.50
2011,08,21,03,53,13.40
2011,08,21,03,54,13.40
2011,08,21,03,55,13.40
2011,08,21,03,56,13.30
2011,08,21,03,57,13.30
2011,08,21,03,58,13.30
2011,08,21,03,59,13.30
2011,08,21,04,00,13.30
2011,08,21,04,01,13.30
2011,08,21,04,02,13.30
2011,08,21,04,03,13.30
2011,08,21,04,04,13.30
2011,08,21,04,05,13.30
2011,08,21,04,06,13.30
2011,08,21,04,07,13.30
2011,08,21,04,08,13.30
2011,08,21,04,09,13.30
2011,08,21,04,10,13.30
2011,08,21,04,11,13.30
2011,08,21,04,12,13.30
2011,08,21,04,13,13.30
2011,08,21,04,14,13.30
2011,08,21,04,15,13.30
2011,08,21,04,16,13.30
2011,08,21,04,17,13.30
2011,08,21,04,18,13.30
2011,08,21,04,19,13.30
2011,08,21,04,20,13.30
2011,08,21,04,21,13.30
2011,08,21,04,22,13.30
2011,08,21,04,23,13.30
2011,08,21,04,24,13.30
2011,08,21,04,25,13.30
2011,08,21,04,26,13.30
2011,08,21,04,27,13.30
2011,08,21,04,28,13.30
2011,08,21,04,29,13.30
2011,08,21,04,30,13.30
2011,08,21,04,31,13.30
2011,08,21,04,32,13.30
2011,08,21,04,33,13.30
2011,08,21,04,34,13.30
2011,08,21,04,35,13.30
2011,08,21,04,36,13.30
2011,08,21,04,37,13.30
2011,08,21,04,38,13.30
2011,08,21,04,39,13.40
2011,08,21,04,40,13.40
2011,08,21,04,41,13.40
2011,08,21,04,42,13.40
2011,08,21,04,43,13.40
2011,08,21,04,44,13.40
2011,08,21,04,45,13.40
2011,08,21,04,46,13.40
2011,08,21,04,47,13.40
2011,08,21,04,48,13.40
2011,08,21,04,49,13.40
2011,08,21,04,50,13.40
2011,08,21,04,51,13.40
2011,08,21,04,52,13.40
2011,08,21,04,53,13.40
2011,08,21,04,54,13.40
2011,08,21,04,55,13.40
2011,08,21,04,56,13.40
2011,08,21,04,57,13.40
2011,08,21,04,58,13.40
2011,08,21,04,59,13.40
2011,08,21,05,00,13.40
2011,08,21,05,01,13.40
2011,08,21,05,02,13.30
2011,08,21,05,03,13.30
2011,08,21,05,04,13.30
2011,08,21,05,05,13.30
2011,08,21,05,06,13.30
2011,08,21,05,07,13.30
2011,08,21,05,08,13.30
2011,08,21,05,09,13.30
2011,08,21,05,10,13.30
2011,08,21,05,11,13.30
2011,08,21,05,12,13.30
2011,08,21,05,13,13.30
2011,08,21,05,14,13.30
2011,08,21,05,15,13.30
2011,08,21,05,16,13.20
2011,08,21,05,17,13.20
2011,08,21,05,18,13.20
2011,08,21,05,19,13.20
2011,08,21,05,20,13.20
2011,08,21,05,21,13.10
2011,08,21,05,22,13.10
2011,08,21,05,23,13.10
2011,08,21,05,24,13.10
2011,08,21,05,25,13.10
2011,08,21,05,26,13.10
2011,08,21,05,27,13.10
2011,08,21,05,28,13.10
2011,08,21,05,29,13.10
2011,08,21,05,30,13.10
2011,08,21,05,31,13.10
2011,08,21,05,32,13.10
2011,08,21,05,33,13.10
2011,08,21,05,34,13.10
2011,08,21,05,35,13.20
2011,08,21,05,36,13.20
2011,08,21,05,37,13.20
2011,08,21,05,38,13.30
2011,08,21,05,39,13.30
2011,08,21,05,40,13.30
2011,08,21,05,41,13.30
2011,08,21,05,42,13.30
2011,08,21,05,43,13.30
2011,08,21,05,44,13.30
2011,08,21,05,45,13.30
2011,08,21,05,46,13.30
2011,08,21,05,47,13.30
2011,08,21,05,48,13.30
2011,08,21,05,49,13.30
2011,08,21,05,50,13.30
2011,08,21,05,51,13.30
2011,08,21,05,52,13.30
2011,08,21,05,53,13.30
2011,08,21,05,54,13.30
2011,08,21,05,55,13.40
2011,08,21,05,56,13.40
2011,08,21,05,57,13.50
2011,08,21,05,58,13.50
2011,08,21,05,59,13.50
2011,08,21,06,00,13.60
2011,08,21,06,01,13.60
2011,08,21,06,02,13.70
2011,08,21,06,03,13.70
2011,08,21,06,04,13.70
2011,08,21,06,05,13.70
2011,08,21,06,06,13.70
2011,08,21,06,07,13.70
2011,08,21,06,08,13.70
2011,08,21,06,09,13.70
2011,08,21,06,10,13.70
2011,08,21,06,11,13.70
2011,08,21,06,12,13.70
2011,08,21,06,13,13.70
2011,08,21,06,14,13.70
2011,08,21,06,15,13.70
2011,08,21,06,16,13.70
2011,08,21,06,17,13.70
2011,08,21,06,18,13.70
2011,08,21,06,19,13.60
2011,08,21,06,20,13.60
2011,08,21,06,21,13.60
2011,08,21,06,22,13.60
2011,08,21,06,23,13.60
2011,08,21,06,24,13.60
2011,08,21,06,25,13.60
2011,08,21,06,26,13.60
2011,08,21,06,27,13.50
2011,08,21,06,28,13.50
2011,08,21,06,29,13.50
2011,08,21,06,30,13.50
2011,08,21,06,31,13.50
2011,08,21,06,32,13.50
2011,08,21,06,33,13.50
2011,08,21,06,34,13.50
2011,08,21,06,35,13.50
2011,08,21,06,36,13.50
2011,08,21,06,37,13.50
2011,08,21,06,38,13.50
2011,08,21,06,39,13.50
2011,08,21,06,40,13.50
2011,08,21,06,41,13.60
2011,08,21,06,42,13.60
2011,08,21,06,43,13.60
2011,08,21,06,44,13.60
2011,08,21,06,45,13.60
2011,08,21,06,46,13.60
2011,08,21,06,47,13.60
2011,08,21,06,48,13.60
2011,08,21,06,49,13.60
2011,08,21,06,50,13.60
2011,08,21,06,51,13.60
2011,08,21,06,52,13.60
2011,08,21,06,53,13.60
2011,08,21,06,54,13.60
2011,08,21,06,55,13.60
2011,08,21,06,56,13.60
2011,08,21,06,57,13.60
2011,08,21,06,58,13.60
2011,08,21,06,59,13.70
2011,08,21,07,00,13.70
2011,08,21,07,01,13.70
2011,08,21,07,02,13.70
2011,08,21,07,03,13.70
2011,08,21,07,04,13.70
2011,08,21,07,05,13.70
2011,08,21,07,06,13.70
2011,08,21,07,07,13.70
2011,08,21,07,08,13.60
2011,08,21,07,09,13.60
2011,08,21,07,10,13.60
2011,08,21,07,11,13.60
2011,08,21,07,12,13.50
2011,08,21,07,13,13.50
2011,08,21,07,14,13.50
2011,08,21,07,15,13.50
2011,08,21,07,16,13.50
2011,08,21,07,17,13.50
2011,08,21,07,18,13.50
2011,08,21,07,19,13.50
2011,08,21,07,20,13.50
2011,08,21,07,21,13.50
2011,08,21,07,22,13.50
2011,08,21,07,23,13.50
2011,08,21,07,24,13.50
2011,08,21,07,25,13.40
2011,08,21,07,26,13.40
2011,08,21,07,27,13.40
2011,08,21,07,28,13.30
2011,08,21,07,29,13.30
2011,08,21,07,30,13.30
2011,08,21,07,31,13.30
2011,08,21,07,32,13.30
2011,08,21,07,33,13.30
2011,08,21,07,34,13.30
2011,08,21,07,35,13.30
2011,08,21,07,36,13.30
2011,08,21,07,37,13.30
2011,08,21,07,38,13.30
2011,08,21,07,39,13.30
2011,08,21,07,40,13.30
2011,08,21,07,41,13.30
2011,08,21,07,42,13.30
2011,08,21,07,43,13.30
2011,08,21,07,44,13.30
2011,08,21,07,45,13.30
2011,08,21,07,46,13.30
2011,08,21,07,47,13.30
2011,08,21,07,48,13.30
2011,08,21,07,49,13.30
2011,08,21,07,50,13.30
2011,08,21,07,51,13.30
2011,08,21,07,52,13.30
2011,08,21,07,53,13.40
2011,08,21,07,54,13.40
2011,08,21,07,55,13.40
2011,08,21,07,56,13.40
2011,08,21,07,57,13.40
2011,08,21,07,58,13.50
2011,08,21,07,59,13.50
2011,08,21,08,00,13.50
2011,08,21,08,01,13.50
2011,08,21,08,02,13.60
2011,08,21,08,03,13.60
2011,08,21,08,04,13.60
2011,08,21,08,05,13.60
2011,08,21,08,06,13.70
2011,08,21,08,07,13.70
2011,08,21,08,08,13.70
2011,08,21,08,09,13.70
2011,08,21,08,10,13.70
2011,08,21,08,11,13.80
2011,08,21,08,12,13.80
2011,08,21,08,13,13.80
2011,08,21,08,14,13.90
2011,08,21,08,15,13.90
2011,08,21,08,16,13.90
2011,08,21,08,17,14.00
2011,08,21,08,18,14.00
2011,08,21,08,19,14.10
2011,08,21,08,20,14.20
2011,08,21,08,21,14.20
2011,08,21,08,22,14.20
2011,08,21,08,23,14.30
2011,08,21,08,24,14.40
2011,08,21,08,25,14.50
2011,08,21,08,26,14.50
2011,08,21,08,27,14.60
2011,08,21,08,28,14.70
2011,08,21,08,29,14.70
2011,08,21,08,30,14.80
2011,08,21,08,31,14.80
2011,08,21,08,32,14.90
2011,08,21,08,33,15.00
2011,08,21,08,34,15.10
2011,08,21,08,35,15.20
2011,08,21,08,36,15.30
2011,08,21,08,37,15.40
2011,08,21,08,38,15.40
2011,08,21,08,39,15.50
2011,08,21,08,40,15.60
2011,08,21,08,41,15.60
2011,08,21,08,42,15.70
2011,08,21,08,43,15.80
2011,08,21,08,44,15.80
2011,08,21,08,45,15.80
2011,08,21,08,46,15.90
2011,08,21,08,47,15.90
2011,08,21,08,48,16.00
2011,08,21,08,49,16.10
2011,08,21,08,50,16.10
2011,08,21,08,51,16.10
2011,08,21,08,52,16.20
2011,08,21,08,53,16.30
2011,08,21,08,54,16.30
2011,08,21,08,55,16.40
2011,08,21,08,56,16.50
2011,08,21,08,57,16.60
2011,08,21,08,58,16.70
2011,08,21,08,59,16.80
2011,08,21,09,00,16.90
2011,08,21,09,01,17.00
2011,08,21,09,02,17.10
2011,08,21,09,03,17.20
2011,08,21,09,04,17.30
2011,08,21,09,05,17.40
2011,08,21,09,06,17.50
2011,08,21,09,07,17.50
2011,08,21,09,08,17.60
2011,08,21,09,09,17.70
2011,08,21,09,10,17.80
2011,08,21,09,11,17.90
2011,08,21,09,12,17.90
2011,08,21,09,13,18.00
2011,08,21,09,14,18.10
2011,08,21,09,15,18.10
2011,08,21,09,16,18.10
2011,08,21,09,17,18.10
2011,08,21,09,18,18.10
2011,08,21,09,19,18.10
2011,08,21,09,20,18.10
2011,08,21,09,21,18.00
2011,08,21,09,22,17.90
2011,08,21,09,23,17.90
2011,08,21,09,24,17.90
2011,08,21,09,25,17.90
2011,08,21,09,26,17.90
2011,08,21,09,27,17.80
2011,08,21,09,28,17.70
2011,08,21,09,29,17.70
2011,08,21,09,30,17.70
2011,08,21,09,31,17.70
2011,08,21,09,32,17.70
2011,08,21,09,33,17.70
2011,08,21,09,34,17.80
2011,08,21,09,35,17.80
2011,08,21,09,36,17.90
2011,08,21,09,37,17.90
2011,08,21,09,38,18.10
2011,08,21,09,39,18.10
2011,08,21,09,40,18.20
2011,08,21,09,41,18.20
2011,08,21,09,42,18.20
2011,08,21,09,43,18.20
2011,08,21,09,44,18.10
2011,08,21,09,45,18.10
2011,08,21,09,46,18.10
2011,08,21,09,47,18.10
2011,08,21,09,48,18.10
2011,08,21,09,49,18.00
2011,08,21,09,50,17.90
2011,08,21,09,51,17.90
2011,08,21,09,52,17.90
2011,08,21,09,53,17.90
2011,08,21,09,54,18.00
2011,08,21,09,55,18.10
2011,08,21,09,56,18.10
2011,08,21,09,57,18.20
2011,08,21,09,58,18.20
2011,08,21,09,59,18.10
2011,08,21,10,00,18.10
2011,08,21,10,01,18.10
2011,08,21,10,02,18.20
2011,08,21,10,03,18.20
2011,08,21,10,04,18.40
2011,08,21,10,05,18.50
2011,08,21,10,06,18.60
2011,08,21,10,07,18.70
2011,08,21,10,08,18.80
2011,08,21,10,09,18.90
2011,08,21,10,10,18.90
2011,08,21,10,11,18.80
2011,08,21,10,12,18.70
2011,08,21,10,13,18.70
2011,08,21,10,14,18.70
2011,08,21,10,15,18.70
2011,08,21,10,16,18.70
2011,08,21,10,17,18.90
2011,08,21,10,18,19.20
2011,08,21,10,19,19.50
2011,08,21,10,20,19.80
2011,08,21,10,21,19.90
2011,08,21,10,22,19.90
2011,08,21,10,23,19.90
2011,08,21,10,24,20.00
2011,08,21,10,25,20.00
2011,08,21,10,26,20.00
2011,08,21,10,27,19.90
2011,08,21,10,28,19.90
2011,08,21,10,29,19.90
2011,08,21,10,30,19.80
2011,08,21,10,31,19.70
2011,08,21,10,32,19.60
2011,08,21,10,33,19.50
2011,08,21,10,34,19.40
2011,08,21,10,35,19.40
2011,08,21,10,36,19.30
2011,08,21,10,37,19.30
2011,08,21,10,38,19.30
2011,08,21,10,39,19.30
2011,08,21,10,40,19.30
2011,08,21,10,41,19.30
2011,08,21,10,42,19.30
2011,08,21,10,43,19.30
2011,08,21,10,44,19.40
2011,08,21,10,45,19.40
2011,08,21,10,46,19.50
2011,08,21,10,47,19.70
2011,08,21,10,48,19.80
2011,08,21,10,49,19.90
2011,08,21,10,50,20.00
2011,08,21,10,51,20.10
2011,08,21,10,52,20.20
2011,08,21,10,53,20.30
2011,08,21,10,54,20.40
2011,08,21,10,55,20.50
2011,08,21,10,56,20.70
2011,08,21,10,57,20.80
2011,08,21,10,58,21.00
2011,08,21,10,59,21.10
2011,08,21,11,00,21.20
2011,08,21,11,01,21.30
2011,08,21,11,02,21.40
2011,08,21,11,03,21.50
2011,08,21,11,04,21.60
2011,08,21,11,05,21.90
2011,08,21,11,06,22.00
2011,08,21,11,07,22.20
2011,08,21,11,08,22.30
2011,08,21,11,09,22.40
2011,08,21,11,10,22.60
2011,08,21,11,11,22.70
2011,08,21,11,12,22.70
2011,08,21,11,13,22.70
2011,08,21,11,14,22.70
2011,08,21,11,15,22.70
2011,08,21,11,16,22.70
2011,08,21,11,17,22.70
2011,08,21,11,18,22.80
2011,08,21,11,19,22.90
2011,08,21,11,20,23.00
2011,08,21,11,21,23.10
2011,08,21,11,22,23.20
2011,08,21,11,23,23.20
2011,08,21,11,24,23.30
2011,08,21,11,25,23.30
2011,08,21,11,26,23.30
2011,08,21,11,27,23.30
2011,08,21,11,28,23.40
2011,08,21,11,29,23.40
2011,08,21,11,30,23.40
2011,08,21,11,31,23.50
2011,08,21,11,32,23.60
2011,08,21,11,33,23.60
2011,08,21,11,34,23.60
2011,08,21,11,35,23.60
2011,08,21,11,36,23.60
2011,08,21,11,37,23.60
2011,08,21,11,38,23.60
2011,08,21,11,39,23.60
2011,08,21,11,40,23.70
2011,08,21,11,41,23.70
2011,08,21,11,42,23.70
2011,08,21,11,43,23.70
2011,08,21,11,44,23.90
2011,08,21,11,45,23.90
2011,08,21,11,46,23.90
2011,08,21,11,47,23.90
2011,08,21,11,48,24.10
2011,08,21,11,49,24.10
2011,08,21,11,50,24.10
2011,08,21,11,51,24.10
2011,08,21,11,52,24.20
2011,08,21,11,53,24.20
2011,08,21,11,54,24.30
2011,08,21,11,55,24.40
2011,08,21,11,56,24.50
2011,08,21,11,57,24.60
2011,08,21,11,58,24.70
2011,08,21,11,59,24.80
2011,08,21,12,00,24.80
2011,08,21,12,01,24.90
2011,08,21,12,02,24.90
2011,08,21,12,03,25.00
2011,08,21,12,04,25.10
2011,08,21,12,05,25.10
2011,08,21,12,06,25.10
2011,08,21,12,07,25.20
2011,08,21,12,08,25.30
2011,08,21,12,09,25.40
2011,08,21,12,10,25.50
2011,08,21,12,11,25.50
2011,08,21,12,12,25.50
2011,08,21,12,13,25.50
2011,08,21,12,14,25.60
2011,08,21,12,15,25.60
2011,08,21,12,16,25.80
2011,08,21,12,17,25.80
2011,08,21,12,18,25.90
2011,08,21,12,19,26.10
2011,08,21,12,20,26.20
2011,08,21,12,21,26.30
2011,08,21,12,22,26.40
2011,08,21,12,23,26.50
2011,08,21,12,24,26.60
2011,08,21,12,25,26.60
2011,08,21,12,26,26.60
2011,08,21,12,27,26.70
2011,08,21,12,28,26.80
2011,08,21,12,29,26.80
2011,08,21,12,30,27.00
2011,08,21,12,31,27.10
2011,08,21,12,32,27.20
2011,08,21,12,33,27.30
2011,08,21,12,34,27.40
2011,08,21,12,35,27.40
2011,08,21,12,36,27.40
2011,08,21,12,37,27.30
2011,08,21,12,38,27.30
2011,08,21,12,39,27.30
2011,08,21,12,40,27.30
2011,08,21,12,41,27.40
2011,08,21,12,42,27.50
2011,08,21,12,43,27.70
2011,08,21,12,44,27.80
2011,08,21,12,45,27.80
2011,08,21,12,46,27.90
2011,08,21,12,47,27.90
2011,08,21,12,48,27.90
2011,08,21,12,49,27.80
2011,08,21,12,50,27.80
2011,08,21,12,51,27.70
2011,08,21,12,52,27.70
2011,08,21,12,53,27.70
2011,08,21,12,54,27.80
2011,08,21,12,55,27.80
2011,08,21,12,56,27.90
2011,08,21,12,57,27.90
2011,08,21,12,58,27.80
2011,08,21,12,59,27.80
2011,08,21,13,00,27.80
2011,08,21,13,01,27.90
2011,08,21,13,02,27.90
2011,08,21,13,03,27.90
2011,08,21,13,04,28.00
2011,08,21,13,05,28.00
2011,08,21,13,06,28.00
2011,08,21,13,07,27.90
2011,08,21,13,08,27.80
2011,08,21,13,09,27.80
2011,08,21,13,10,27.70
2011,08,21,13,11,27.60
2011,08,21,13,12,27.60
2011,08,21,13,13,27.50
2011,08,21,13,14,27.40
2011,08,21,13,15,27.40
2011,08,21,13,16,27.30
2011,08,21,13,17,27.30
2011,08,21,13,18,27.30
2011,08,21,13,19,27.30
2011,08,21,13,20,27.30
2011,08,21,13,21,27.30
2011,08,21,13,22,27.30
2011,08,21,13,23,27.30
2011,08,21,13,24,27.30
2011,08,21,13,25,27.30
2011,08,21,13,26,27.30
2011,08,21,13,27,27.30
2011,08,21,13,28,27.40
2011,08,21,13,29,27.40
2011,08,21,13,30,27.40
2011,08,21,13,31,27.40
2011,08,21,13,32,27.50
2011,08,21,13,33,27.50
2011,08,21,13,34,27.40
2011,08,21,13,35,27.30
2011,08,21,13,36,27.30
2011,08,21,13,37,27.40
2011,08,21,13,38,27.50
2011,08,21,13,39,27.50
2011,08,21,13,40,27.40
2011,08,21,13,41,27.40
2011,08,21,13,42,27.30
2011,08,21,13,43,27.30
2011,08,21,13,44,27.30
2011,08,21,13,45,27.30
2011,08,21,13,46,27.30
2011,08,21,13,47,27.30
2011,08,21,13,48,27.30
2011,08,21,13,49,27.30
2011,08,21,13,50,27.30
2011,08,21,13,51,27.30
2011,08,21,13,52,27.30
2011,08,21,13,53,27.30
2011,08,21,13,54,27.40
2011,08,21,13,55,27.40
2011,08,21,13,56,27.40
2011,08,21,13,57,27.60
2011,08,21,13,58,27.60
2011,08,21,13,59,27.60
2011,08,21,14,00,27.60
2011,08,21,14,01,27.50
2011,08,21,14,02,27.40
2011,08,21,14,03,27.40
2011,08,21,14,04,27.30
2011,08,21,14,05,27.30
2011,08,21,14,06,27.30
2011,08,21,14,07,27.30
2011,08,21,14,08,27.30
2011,08,21,14,09,27.20
2011,08,21,14,10,27.20
2011,08,21,14,11,27.20
2011,08,21,14,12,27.20
2011,08,21,14,13,27.20
2011,08,21,14,14,27.10
2011,08,21,14,15,27.00
2011,08,21,14,16,26.90
2011,08,21,14,17,26.80
2011,08,21,14,18,26.70
2011,08,21,14,19,26.60
2011,08,21,14,20,26.60
2011,08,21,14,21,26.60
2011,08,21,14,22,26.60
2011,08,21,14,23,26.60
2011,08,21,14,24,26.60
2011,08,21,14,25,26.60
2011,08,21,14,26,26.60
2011,08,21,14,27,26.70
2011,08,21,14,28,26.80
2011,08,21,14,29,26.80
2011,08,21,14,30,26.80
2011,08,21,14,31,26.90
2011,08,21,14,32,26.90
2011,08,21,14,33,26.90
2011,08,21,14,34,26.90
2011,08,21,14,35,26.80
2011,08,21,14,36,26.80
2011,08,21,14,37,26.80
2011,08,21,14,38,26.80
2011,08,21,14,39,26.80
2011,08,21,14,40,26.80
2011,08,21,14,41,26.80
2011,08,21,14,42,26.80
2011,08,21,14,43,26.80
2011,08,21,14,44,26.80
2011,08,21,14,45,26.90
2011,08,21,14,46,26.90
2011,08,21,14,47,26.90
2011,08,21,14,48,27.00
2011,08,21,14,49,27.10
2011,08,21,14,50,27.10
2011,08,21,14,51,27.10
2011,08,21,14,52,27.20
2011,08,21,14,53,27.20
2011,08,21,14,54,27.20
2011,08,21,14,55,27.30
2011,08,21,14,56,27.30
2011,08,21,14,57,27.30
2011,08,21,14,58,27.30
2011,08,21,14,59,27.30
2011,08,21,15,00,27.30
2011,08,21,15,01,27.20
2011,08,21,15,02,27.20
2011,08,21,15,03,27.20
2011,08,21,15,04,27.20
2011,08,21,15,05,27.20
2011,08,21,15,06,27.20
2011,08,21,15,07,27.10
2011,08,21,15,08,27.20
2011,08,21,15,09,27.20
2011,08,21,15,10,27.20
2011,08,21,15,11,27.20
2011,08,21,15,12,27.30
2011,08,21,15,13,27.30
2011,08,21,15,14,27.20
2011,08,21,15,15,27.10
2011,08,21,15,16,27.10
2011,08,21,15,17,27.10
2011,08,21,15,18,27.00
2011,08,21,15,19,26.90
2011,08,21,15,20,27.00
2011,08,21,15,21,26.90
2011,08,21,15,22,26.90
2011,08,21,15,23,26.80
2011,08,21,15,24,26.70
2011,08,21,15,25,26.70
2011,08,21,15,26,26.60
2011,08,21,15,27,26.60
2011,08,21,15,28,26.60
2011,08,21,15,29,26.70
2011,08,21,15,30,26.70
2011,08,21,15,31,26.70
2011,08,21,15,32,26.80
2011,08,21,15,33,26.80
2011,08,21,15,34,26.80
2011,08,21,15,35,26.70
2011,08,21,15,36,26.70
2011,08,21,15,37,26.70
2011,08,21,15,38,26.70
2011,08,21,15,39,26.70
2011,08,21,15,40,26.70
2011,08,21,15,41,26.70
2011,08,21,15,42,26.60
2011,08,21,15,43,26.60
2011,08,21,15,44,26.50
2011,08,21,15,45,26.40
2011,08,21,15,46,26.40
2011,08,21,15,47,26.30
2011,08,21,15,48,26.30
2011,08,21,15,49,26.30
2011,08,21,15,50,26.30
2011,08,21,15,51,26.40
2011,08,21,15,52,26.50
2011,08,21,15,53,26.60
2011,08,21,15,54,26.60
2011,08,21,15,55,26.60
2011,08,21,15,56,26.70
2011,08,21,15,57,26.70
2011,08,21,15,58,26.70
2011,08,21,15,59,26.70
2011,08,21,16,00,26.80
2011,08,21,16,01,26.80
2011,08,21,16,02,26.80
2011,08,21,16,03,26.70
2011,08,21,16,04,26.70
2011,08,21,16,05,26.70
2011,08,21,16,06,26.80
2011,08,21,16,07,26.80
2011,08,21,16,08,26.80
2011,08,21,16,09,26.80
2011,08,21,16,10,26.80
2011,08,21,16,11,26.80
2011,08,21,16,12,26.80
2011,08,21,16,13,26.70
2011,08,21,16,14,26.80
2011,08,21,16,15,26.80
2011,08,21,16,16,26.70
2011,08,21,16,17,26.70
2011,08,21,16,18,26.60
2011,08,21,16,19,26.60
2011,08,21,16,20,26.60
2011,08,21,16,21,26.60
2011,08,21,16,22,26.50
2011,08,21,16,23,26.40
2011,08,21,16,24,26.30
2011,08,21,16,25,26.30
2011,08,21,16,26,26.30
2011,08,21,16,27,26.20
2011,08,21,16,28,26.20
2011,08,21,16,29,26.20
2011,08,21,16,30,26.20
2011,08,21,16,31,26.20
2011,08,21,16,32,26.20
2011,08,21,16,33,26.20
2011,08,21,16,34,26.10
2011,08,21,16,35,26.10
2011,08,21,16,36,26.20
2011,08,21,16,37,26.20
2011,08,21,16,38,26.20
2011,08,21,16,39,26.20
2011,08,21,16,40,26.30
2011,08,21,16,41,26.30
2011,08,21,16,42,26.30
2011,08,21,16,43,26.30
2011,08,21,16,44,26.40
2011,08,21,16,45,26.40
2011,08,21,16,46,26.50
2011,08,21,16,47,26.60
2011,08,21,16,48,26.60
2011,08,21,16,49,26.60
2011,08,21,16,50,26.60
2011,08,21,16,51,26.60
2011,08,21,16,52,26.60
2011,08,21,16,53,26.70
2011,08,21,16,54,26.80
2011,08,21,16,55,26.90
2011,08,21,16,56,27.00
2011,08,21,16,57,27.10
2011,08,21,16,58,27.20
2011,08,21,16,59,27.30
2011,08,21,17,00,27.30
2011,08,21,17,01,27.30
2011,08,21,17,02,27.30
2011,08,21,17,03,27.30
2011,08,21,17,04,27.30
2011,08,21,17,05,27.30
2011,08,21,17,06,27.20
2011,08,21,17,07,27.20
2011,08,21,17,08,27.20
2011,08,21,17,09,27.20
2011,08,21,17,10,27.30
2011,08,21,17,11,27.30
2011,08,21,17,12,27.40
2011,08,21,17,13,27.50
2011,08,21,17,14,27.60
2011,08,21,17,15,27.70
2011,08,21,17,16,27.70
2011,08,21,17,17,27.60
2011,08,21,17,18,27.40
2011,08,21,17,19,27.30